Regional Weather Roundup
Issued by NWS San Diego, CA

Home | Current Version | Previous Version | Text Only | Print | Product List | Glossary On
Versions: 1 2 3 4 5 6 7 8 9 10 11 12 13 14 15 16 17 18 19 20 21 22 23 24 25 26 27 28 29 30 31 32 33 34 35 36 37 38 39 40 41 42 43 44 45 46 47 48 49 50
000
ASUS46 KSGX 060111
RWRSGX

SAN DIEGO HOURLY WEATHER ROUNDUP
NATIONAL WEATHER SERVICE SAN DIEGO CA
600 PM PDT TUE MAY 05 2015

NOTE: "FAIR" INDICATES FEW OR NO CLOUDS BELOW 12,000 FEET WITH NO
SIGNIFICANT WEATHER AND/OR OBSTRUCTIONS TO VISIBILITY.

CAZ042-043-060-061-PZZ750-775-060200-

GREATER SAN DIEGO AREA

CITY           SKY/WX    TMP DP  RH WIND       PRES   REMARKS
LINDBERGH FLD  PTSUNNY   64  48  56 W10       29.96S
POINT LOMA       N/A     62  49  63 W10         N/A
CHULA VISTA      N/A     63  53  70 W7        29.88S
IMPERIAL BEACH PTSUNNY   64  50  60 W10       29.96S
BROWN FIELD    PTSUNNY   61  49  64 W10       29.94S
MIRAMAR MCAS   PTSUNNY   64  47  53 W8        29.94F
MONTGOMERY FLD PTSUNNY   63  48  58 W8        29.94F

$$

NORTH SAN DIEGO COUNTY

CITY           SKY/WX    TMP DP  RH WIND       PRES   REMARKS
CAMP PENDLETON PTSUNNY   63  47  55 SW9       29.93F
OCEANSIDE AP   PTSUNNY   63  49  60 W9        29.93F
CARLSBAD       PTSUNNY   61  49  64 W8        29.94S
FALLBROOK        N/A     66  50  57 S3        29.92F
SAN MARCOS       N/A     61  50  68 NW1       29.92F

$$

EAST SAN DIEGO COUNTY

CITY           SKY/WX    TMP DP  RH WIND       PRES   REMARKS
RAMONA         PTSUNNY   60  46  59 W10       29.93F
SANTEE LAKES     N/A     64  51  62 W5        29.94S
LA MESA          N/A     63  49  61 W8        29.88F
DESCANSO N       N/A     58  47  66 W5        29.82S
MT. LAGUNA OBS   N/A     54  38  56 CALM      29.59S
CAMPO            N/A     63  45  51 SW16G23   29.89S

$$

ORANGE COUNTY AND THE LOS ANGELES BASIN

CITY           SKY/WX    TMP DP  RH WIND       PRES   REMARKS
JOHN WAYNE AP  PTSUNNY   63  47  55 SW5       29.94F
LAKE FOREST FR   N/A     61  46  59 CALM      29.84F
SANTA ANA        N/A     66  51  57 SW2       29.89F
HUNTINGTON BCH   N/A     63  53  70 W3        29.96F
LOS ALAMITOS   PTSUNNY   64  49  59 SW6       29.93F
FULLERTON      PTSUNNY   65  46  50 SW6       29.93F
LONG BEACH     PTSUNNY   66  46  48 S6        29.93F
L.A. AP        PTSUNNY   61  50  67 W12       29.94F
L.A. DOWNTOWN  PTSUNNY   64  49  57 VRB5      29.93F

$$

THE INLAND EMPIRE

CITY           SKY/WX    TMP DP  RH WIND       PRES   REMARKS
CORONA         MOSUNNY   63  49  60 W12       29.92F
CHINO          PTSUNNY   64  48  56 SW14      29.92F
ONTARIO        PTSUNNY   63  47  55 SW12      29.91F
SAN BERNARDINO PTSUNNY   66  45  45 SW15      29.91S
RIVERSIDE AP   MOSUNNY   65  48  54 W10       29.91F
RIV CYN CREST    N/A     64  56  74 W6          N/A
MORENO VALLEY    N/A     66  54  66 W3        29.87F
HORSETHIEF CYN   N/A     64  47  53 N3        29.88F
MENIFEE          N/A     68  50  52 S7        29.95S
HEMET EAST       N/A     66  43  42 NW5       29.92S
FRENCH VALLEY  FAIR      64  45  48 SW6       29.92
TEMECULA         N/A     63  50  61 SW8       29.87R

$$

SAN BERNARDINO AND RIVERSIDE COUNTY MOUNTAINS

CITY           SKY/WX    TMP DP  RH WIND       PRES   REMARKS
BIG BEAR AP    MOSUNNY   52  36  54 W14       30.00S

$$

SOUTHERN DESERT INCLUDING THE COACHELLA VALLEY

CITY           SKY/WX    TMP DP  RH WIND       PRES   REMARKS
PALM SPRINGS   MOSUNNY   82  41  23 NW20G26   29.76F
THOUSAND PALMS   N/A     81  42  25 NW16      29.74S
THERMAL        SUNNY     86  41  20 CALM      29.71F
BLYTHE         SUNNY     88  32  13 S15       29.72F
IMPERIAL AP    MOSUNNY   86  39  19 W8        29.71F
EL CENTRO NAS  PTSUNNY   86  35  16 W18       29.73F
YUMA AZ        PTSUNNY   89  42  19 S17       29.73F
MEXICALI         N/A    N/A N/A N/A MISG        N/A

$$

UPPER DESERT

CITY           SKY/WX    TMP DP  RH WIND       PRES   REMARKS
VICTORVILLE AP SUNNY     70  37  30 S18G25    29.84S
HESPERIA         N/A     62  45  54 W12       29.93R
APPLE VALLEY     N/A     64  41  42 S23G29    29.92R
PALMDALE       MOSUNNY   64  44  48 SW24      29.85S
LANCASTER      MOSUNNY   62  44  51 SW32G39   29.83S
DAGGETT        SUNNY     83  31  15 W22       29.73R
29 PALMS N     PTSUNNY   76  35  22 SW30G37   29.81F
NEEDLES        SUNNY     86  38  18 S15       29.72F

$$

REGIONAL REPORTS

CITY           SKY/WX    TMP DP  RH WIND       PRES   REMARKS
SANTA BARBARA  MOSUNNY   64  48  56 W12       29.94F
SANDBERG       MOSUNNY   56  44  64 SW14G22   29.95S
MT. WILSON       N/A     54  43  66 MISG        N/A
LAS VEGAS NV   MOSUNNY   85  30  13 SW15G25   29.64F
PHOENIX AZ     MOSUNNY   84  45  25 W13       29.77F
TIJUANA        PTSUNNY   61  46  59 W10       29.97S
ENSENADA NW      N/A     63  32  31 W8        29.93S

$$

OFFSHORE ISLANDS

CITY           SKY/WX    TMP DP  RH WIND       PRES   REMARKS
CATALINA ARPT  PTSUNNY   53  48  83 W9        29.95F
SAN CLEMENTE I CLOUDY    60  50  69 W9        29.97S
SAN NICOLAS IS CLOUDY   N/A N/A N/A NW13      29.95F

$$

MARINE AND OFFSHORE BUOY REPORTS

STATION/POSITION SKY/WX   TEMP    WIND        PRES    SWELL
                          AIR SEA DIR/SP/G            HT/PER/DIR
                          (F)     (DEG/KT/KT) (MB)    (FT/S/D)
TANNER BANKS               58 61  320/ 14/ 16 1014.5F   7/260/16
S CLEMENTE BASIN           60 64  280/ 10/ 14 1014.2F   5/190/16
SAN NICOLAS IS.               60                N/A     7/190/17
SO. S. ROSA ISLA           58 61  320/ 17/ 21 1014.1F   7/15
W. S. BARBARA CH           55 55  320/ 14/ 17 1014.6S   7/310/15
S. MONICA BASIN            60 61  280/  4/  4 1014.2F   5/190/16
S PEDRO CHANNEL               63                N/A     3/170/17
DANA POINT                    61                N/A     5/180/17
OCEANSIDE OFFSHR              63                N/A     5/180/17
TORREY PINES OTR              64                N/A     3/210/17
LA JOLLA 1                 62 66  310/  6/  7 1013.9F
MISSION BAY BUOY              65                N/A     3/190/15
SAN DIEGO BAY                 68              1014.4F
POINT LOMA SOUTH              65                N/A     5/170/17

$$



USA.gov is the U.S. government's official web portal to all federal, state and local government web resources and services.